| time (UTC) | temp C | wind direction | speed KPH | gust KPH | rain 1hr cm | rain 24hr cm | rain mn cm | humidity % | barometer mb |
| 20260902060014 | -17 | 0.0 | 0.0 | 0.00 | 0.18 | 0.00 | 1008.6 | ||
| 20260902054535 | -17 | 0.0 | 0.0 | 0.00 | 0.18 | 0.00 | 1008.7 | ||
| 20260902053044 | 16 | 310 | 0.0 | 3.2 | 0.00 | 0.18 | 0.00 | 90 | 1008.8 |
| 20260902051537 | 17 | 310 | 0.0 | 4.8 | 0.00 | 0.18 | 0.00 | 90 | 1008.7 |
| 20260902050009 | 17 | 303 | 0.0 | 1.6 | 0.00 | 0.18 | 0.18 | 88 | 1008.4 |
| 20260902044539 | 17 | 303 | 0.0 | 6.4 | 0.00 | 0.18 | 0.18 | 88 | 1009.1 |
| 20260902043109 | 18 | 1 | 0.0 | 3.2 | 0.00 | 0.18 | 0.18 | 85 | 1009.2 |
| 20260902041524 | 17 | 73 | 0.0 | 3.2 | 0.00 | 0.18 | 0.18 | 86 | 1009.0 |
| 20260902040020 | 17 | 319 | 0.0 | 0.0 | 0.00 | 0.18 | 0.18 | 89 | 1009.1 |
| 20260902034539 | 17 | 319 | 0.0 | 1.6 | 0.05 | 0.18 | 0.18 | 89 | 1009.4 |
| 20260902033041 | 17 | 319 | 1.6 | 4.8 | 0.13 | 0.18 | 0.18 | 88 | 1009.4 |
| 20260902031552 | 18 | 142 | 0.0 | 4.8 | 0.13 | 0.18 | 0.18 | 87 | 1009.5 |
| 20260902030052 | 18 | 98 | 1.6 | 4.8 | 0.13 | 0.18 | 0.18 | 84 | 1009.6 |
| 20260902024557 | 18 | 127 | 0.0 | 3.2 | 0.08 | 0.13 | 0.13 | 90 | 1009.8 |
| 20260902023114 | 18 | 260 | 0.0 | 3.2 | 0.00 | 0.05 | 0.05 | 89 | 1010.0 |
| 20260902021518 | 18 | 260 | 1.6 | 3.2 | 0.03 | 0.05 | 0.05 | 90 | 1009.8 |
| 20260902020039 | 19 | 145 | 0.0 | 1.6 | 0.03 | 0.05 | 0.05 | 90 | 1009.3 |
| 20260902014541 | 19 | 145 | 0.0 | 0.0 | 0.05 | 0.05 | 0.05 | 89 | 1008.9 |
| 20260902013005 | 20 | 145 | 0.0 | 4.8 | 0.05 | 0.05 | 0.05 | 87 | 1009.1 |
| 20260902011612 | 20 | 145 | 1.6 | 4.8 | 0.03 | 0.03 | 0.03 | 87 | 1009.4 |
| 20260902010105 | 20 | 129 | 0.0 | 3.2 | 0.03 | 0.03 | 0.03 | 89 | 1009.2 |
| 20260902004501 | 20 | 129 | 0.0 | 1.6 | 0.00 | 0.00 | 0.00 | 89 | 1009.3 |
| 20260902003020 | 20 | 129 | 0.0 | 3.2 | 0.00 | 0.00 | 0.00 | 87 | 1009.3 |
| 20260902001533 | 21 | 129 | 0.0 | 1.6 | 0.00 | 0.00 | 0.00 | 86 | 1009.4 |
| 20260902000043 | 21 | 129 | 0.0 | 0.0 | 0.00 | 0.00 | 0.00 | 84 | 1009.2 |
| 20260901234557 | 21 | 129 | 0.0 | 0.0 | 0.00 | 0.00 | 0.00 | 81 | 1009.4 |
| 20260901233047 | 22 | 129 | 0.0 | 0.0 | 0.00 | 0.00 | 0.00 | 74 | 1009.6 |
| 20260901231513 | 22 | 129 | 0.0 | 0.0 | 0.00 | 0.00 | 0.00 | 72 | 1009.4 |
| 20260901230121 | 23 | 128 | 0.0 | 3.2 | 0.00 | 0.00 | 0.00 | 73 | 1009.7 |
| 20260901224616 | 23 | 1 | 0.0 | 1.6 | 0.00 | 0.00 | 0.00 | 70 | 1009.7 |
| 20260901223032 | 23 | 1 | 0.0 | 3.2 | 0.00 | 0.00 | 0.00 | 69 | 1010.0 |
| 20260901221530 | 24 | 1 | 0.0 | 3.2 | 0.00 | 0.00 | 0.00 | 63 | 1010.2 |
| 20260901220040 | 25 | 1 | 0.0 | 3.2 | 0.00 | 0.00 | 0.00 | 60 | 1010.4 |
| 20260901214529 | 25 | 1 | 0.0 | 4.8 | 0.00 | 0.00 | 0.00 | 57 | 1010.1 |
| 20260901213108 | 25 | 28 | 1.6 | 6.4 | 0.00 | 0.00 | 0.00 | 57 | 1010.5 |
| 20260901211548 | 25 | 2 | 1.6 | 6.4 | 0.00 | 0.00 | 0.00 | 58 | 1010.5 |
| 20260901210035 | 25 | 72 | 1.6 | 4.8 | 0.00 | 0.00 | 0.00 | 59 | 1010.2 |
| 20260901204606 | 25 | 72 | 0.0 | 3.2 | 0.00 | 0.00 | 0.00 | 55 | 1010.4 |
| 20260901203021 | 25 | 72 | 0.0 | 4.8 | 0.00 | 0.00 | 0.00 | 60 | 1010.5 |
| 20260901201534 | 25 | 96 | 1.6 | 4.8 | 0.00 | 0.00 | 0.00 | 60 | 1010.4 |
| 20260901200107 | 25 | 68 | 4.8 | 8.0 | 0.00 | 0.00 | 0.00 | 60 | 1009.8 |
| 20260901194607 | 24 | 75 | 3.2 | 8.0 | 0.00 | 0.00 | 0.00 | 60 | 1009.7 |
| 20260901193036 | 24 | 127 | 1.6 | 6.4 | 0.00 | 0.00 | 0.00 | 60 | 1010.3 |
| 20260901191545 | 25 | 55 | 4.8 | 9.7 | 0.00 | 0.00 | 0.00 | 56 | 1010.3 |
| 20260901190029 | 26 | 72 | 3.2 | 9.7 | 0.00 | 0.00 | 0.00 | 55 | 1010.4 |
| 20260901184523 | 25 | 51 | 4.8 | 11.3 | 0.00 | 0.00 | 0.00 | 56 | 1010.2 |
| 20260901183043 | 25 | 122 | 3.2 | 11.3 | 0.00 | 0.00 | 0.00 | 59 | 1010.1 |
| 20260901181511 | 25 | 13 | 3.2 | 9.7 | 0.00 | 0.00 | 0.00 | 53 | 1010.3 |
| 20260901180039 | 25 | 44 | 3.2 | 8.0 | 0.00 | 0.00 | 0.00 | 56 | 1010.1 |
| 20260901174532 | 25 | 39 | 3.2 | 8.0 | 0.00 | 0.00 | 0.00 | 53 | 1010.4 |
| 20260901173106 | 26 | 19 | 3.2 | 9.7 | 0.00 | 0.00 | 0.00 | 51 | 1010.4 |
| 20260901171554 | 26 | 60 | 3.2 | 9.7 | 0.00 | 0.00 | 0.00 | 50 | 1010.6 |
| 20260901170122 | 25 | 113 | 3.2 | 6.4 | 0.00 | 0.00 | 0.00 | 52 | 1011.0 |
| 20260901164609 | 24 | 111 | 1.6 | 6.4 | 0.00 | 0.00 | 0.00 | 52 | 1011.2 |
| 20260901163008 | 25 | 123 | 0.0 | 4.8 | 0.00 | 0.00 | 0.00 | 54 | 1011.2 |
| 20260901161553 | 22 | 294 | 0.0 | 1.6 | 0.00 | 0.00 | 0.00 | 56 | 1011.3 |
| 20260901160019 | 22 | 294 | 1.6 | 6.4 | 0.00 | 0.00 | 0.00 | 56 | 1011.1 |
| 20260901154516 | 22 | 311 | 0.0 | 4.8 | 0.00 | 0.00 | 0.00 | 60 | 1011.3 |
| 20260901153039 | 22 | 338 | 3.2 | 8.0 | 0.00 | 0.00 | 0.00 | 60 | 1011.2 |
| 20260901151533 | 21 | 293 | 3.2 | 9.7 | 0.00 | 0.00 | 0.00 | 61 | 1011.2 |
| 20260901150012 | 21 | 1 | 3.2 | 8.0 | 0.00 | 0.00 | 0.00 | 61 | 1011.1 |
| 20260901144534 | 21 | 341 | 1.6 | 6.4 | 0.00 | 0.00 | 0.00 | 63 | 1011.5 |
| 20260901143022 | 21 | 358 | 0.0 | 4.8 | 0.00 | 0.00 | 0.00 | 65 | 1011.5 |
| 20260901141609 | 20 | 1 | 0.0 | 4.8 | 0.00 | 0.00 | 0.00 | 67 | 1011.5 |
| 20260901140014 | 20 | 1 | 0.0 | 3.2 | 0.00 | 0.00 | 0.00 | 67 | 1011.5 |
| 20260901134522 | 20 | 1 | 0.0 | 3.2 | 0.00 | 0.00 | 0.00 | 65 | 1011.5 |
| 20260901133042 | 21 | 296 | 0.0 | 4.8 | 0.00 | 0.00 | 0.00 | 66 | 1011.4 |
| 20260901131553 | 20 | 323 | 0.0 | 3.2 | 0.00 | 0.00 | 0.00 | 64 | 1011.2 |
| 20260901130011 | 20 | 290 | 0.0 | 3.2 | 0.00 | 0.00 | 0.00 | 66 | 1011.3 |
| 20260901124553 | 17 | 212 | 0.0 | 4.8 | 0.00 | 0.00 | 0.00 | 73 | 1011.1 |
| 20260901123051 | 16 | 302 | 0.0 | 1.6 | 0.00 | 0.00 | 0.00 | 76 | 1010.7 |
| 20260901121517 | 16 | 261 | 0.0 | 3.2 | 0.00 | 0.00 | 0.00 | 72 | 1010.5 |
| 20260901120005 | 16 | 219 | 1.6 | 8.0 | 0.00 | 0.00 | 0.00 | 76 | 1010.5 |
| 20260901114557 | 16 | 211 | 3.2 | 8.0 | 0.00 | 0.00 | 0.00 | 75 | 1010.3 |
| 20260901113046 | 17 | 245 | 1.6 | 4.8 | 0.00 | 0.00 | 0.00 | 72 | 1010.1 |
| 20260901111616 | 17 | 253 | 3.2 | 9.7 | 0.00 | 0.00 | 0.00 | 74 | 1010.1 |
| 20260901110046 | 17 | 255 | 3.2 | 9.7 | 0.00 | 0.00 | 0.00 | 72 | 1010.0 |
| 20260901104603 | 17 | 261 | 3.2 | 12.9 | 0.00 | 0.00 | 0.00 | 74 | 1010.0 |
| 20260901103008 | 17 | 252 | 4.8 | 9.7 | 0.00 | 0.00 | 0.00 | 74 | 1010.1 |
| 20260901101540 | -17 | 0.0 | 0.0 | 0.00 | 0.00 | 0.00 | 1010.0 | ||
| 20260901100004 | -17 | 0.0 | 0.0 | 0.00 | 0.00 | 0.00 | 1009.6 | ||
| 20260901094537 | -17 | 0.0 | 0.0 | 0.00 | 0.00 | 0.00 | 1009.6 | ||
| 20260901093038 | -17 | 0.0 | 0.0 | 0.00 | 0.00 | 0.00 | 1009.7 | ||
| 20260901091608 | 15 | 231 | 4.8 | 8.0 | 0.00 | 0.00 | 0.00 | 87 | 1009.8 |
| 20260901090030 | 16 | 240 | 4.8 | 8.0 | 0.00 | 0.00 | 0.00 | 87 | 1009.7 |
| 20260901084504 | 16 | 206 | 3.2 | 8.0 | 0.00 | 0.00 | 0.00 | 88 | 1009.4 |
| 20260901083102 | 15 | 233 | 1.6 | 4.8 | 0.00 | 0.00 | 0.00 | 88 | 1009.3 |
| 20260901081613 | 15 | 210 | 3.2 | 8.0 | 0.00 | 0.00 | 0.00 | 90 | 1009.4 |
| 20260901080100 | 15 | 215 | 3.2 | 4.8 | 0.00 | 0.00 | 0.00 | 89 | 1009.4 |
| 20260901074603 | 15 | 195 | 1.6 | 4.8 | 0.00 | 0.00 | 0.00 | 88 | 1009.3 |
| 20260901073018 | 16 | 172 | 1.6 | 8.0 | 0.00 | 0.00 | 0.00 | 88 | 1009.4 |
| 20260901071514 | 16 | 199 | 0.0 | 4.8 | 0.00 | 0.00 | 0.00 | 88 | 1009.3 |
| 20260901070026 | 16 | 212 | 1.6 | 6.4 | 0.00 | 0.00 | 0.00 | 87 | 1009.3 |
| 20260901064523 | 16 | 233 | 0.0 | 11.3 | 0.00 | 0.00 | 0.00 | 86 | 1009.4 |
| 20260901063026 | 16 | 204 | 1.6 | 6.4 | 0.00 | 0.00 | 0.00 | 86 | 1009.4 |
| 20260901061611 | 16 | 225 | 0.0 | 4.8 | 0.00 | 0.00 | 0.00 | 85 | 1009.6 |